Location: Unspecified
(49.9820°N, 20.4363°E)
Time: 13:44:40
(UTC+02:00)

ISS - Pass Details

Date: 21 May 2018
Orbit: 402 x 407 km, 51.6° (Epoch: 20 May)

Event Time Altitude Azimuth Distance (km) Brightness Sun altitude
Rises 03:58:07 0° 285° (WNW) 2,320 -0.3 -6.8°
Reaches altitude 10° 04:00:27 10° 271° (W) 1,457 -1.4 -6.5°
Maximum altitude 04:03:06 23° 216° (SW) 908 -2.6 -6.2°
Drops below altitude 10° 04:05:45 10° 162° (SSE) 1,450 -1.2 -5.8°
Sets 04:08:04 0° 147° (SSE) 2,306 -0.1 -5.6°
